OPS 4682 DEB, 38389

Orbit data source: Space-Track

OPS 4682 DEB, 38389 is space debris in LEO originally from a launch on Sat, 03 Apr 1965 UTC launched from the Air Force Western Test Range (AFWTR). Debris objects in space refer to the collection of defunct objects orbiting the Earth. Examples of debris include non-operational satellites, rocket bodies, and fragments generated from explosions, collisions, or faulty payload assembly.

Loading next visibility...
Identifier
38389, 1965-027CS
Orbit
LEO
Country
Flag of USUS
Related business
Manufacturer
Unknown
Mission
Spacecraft
Bus & Motor
Unknown
Mass
Unknown
Launch date (UTC)
1965-04-03 (61 years ago)
Launch vehicle
Unknown
Launch site
Air Force Western Test Range (AFWTR)
Object type
Payload
Rocket body
Debris
Shape & HBR
Unknown shape, 0.1 m
Radar Cross Section
Small (<0.1 m²)

Expand to show TLE details & history
Last TLE update: 2 days ago

TLE from 2 days ago
0 OPS 4682 DEB
1 38389U 65027CS  26103.11653834  .00000788  00000-0  25969-2 0  9990
2 38389  90.3201  39.8034 0010186  74.7898 285.4350 12.99983403 73357
Epoch: 2026-04-13T02:47Z
TLE epoch observation values (Epoch: 2026-04-13T02:47:48.912Z)
Latitude
-0.00001°
Longitude
156.53784°
Altitude
1,262.971 km
Speed
7.225 km/s
True Right ascension
02h 39m 12s
True Declination
0° 00' 00"
Sunlit
Object was in daylight at epoch
Visualization orbit readout
Latitude
Unknown
Longitude
Unknown
Altitude
Unknown
Speed
Unknown
Apparent Right ascension
Unknown
Apparent Declination
Unknown
Sunlit
N/A
Visualization observer readout
Local Sidereal Time
20:17:38
Azimuth
Unknown
Elevation
Unknown
Doppler factor
Unknown
Orbital elements
Apogee altitude
1,267.058 km
Perigee altitude
1,251.499 km
Semi-major axis
7,637.416 km
Eccentricity
0.00102
Inclination
90.3201°
RAAN
39.8034°
Arg. of periapsis
74.7898°
True anomaly
285.32245°
Mean anomaly
285.435°
Eccentric anomaly
285.37873°
Mean motion
3.2518 °/min
Orbital period
110.71 mins
BSTAR
0.0025969
Loading maneuver chart data...
Computing Atmospheric mass density...
Loading historical data...
Loading historical data...
Loading historical data...
Loading historical data...
Loading historical data...
Loading historical data...
Loading historical data...

Documentation

Showing up to 5 results
|